Home > Weather > Jodhpur > Past weeks

Flag for India Past Weather in Jodhpur, Rajasthan, India — Yesterday and Last 2 Weeks

Now
82 °F

Haze.


Feels Like: 91 °F
Forecast: 83 / 90 °F
Wind: 6 mph from East

Location: Jaipur / Sanganer

Current Time: Aug 27, 2016 at 10:45:59 PM

Latest Report: Aug 27, 2016 at 10:00 PM


Visibility: 3 mi

Pressure: 29.77 "Hg

Humidity: 84%

Dew Point: 77 °F

Location of JodhpurLocation

Past Weather in Jodhpur — Graph

°F

Jodhpur Temperature Yesterday

Maximum temperature yesterday: 91 °F (at 4:30 PM)
Minimum temperature yesterday: 77 °F (at 2:00 AM)
Average temperature yesterday: 85 °F

High & Low Weather Summary for the Past Weeks

 TemperatureHumidityPressure
High91 °F (Aug 26, 4:30 PM)100% (Aug 14, 5:00 AM)29.92 "Hg (Aug 14, 5:00 AM)
Low75 °F (Aug 16, 5:00 AM)59% (Aug 16, 4:00 PM)29.50 "Hg (Aug 20, 3:00 PM)
Average82 °F82%29.63 "Hg
* Reported Aug 12 9:30 PM — Aug 27 9:30 PM, Jodhpur, Weather by CustomWeather, © 2016

Note: Actual official high and low records may vary slightly from our data, if they occured in-between our weather recording intervals... More about our weather records

Advertising

Jodhpur Weather History for the Previous 24 Hours

Scroll right to see more
 ConditionsComfort  
Time TempWeatherWind HumidityBarometerVisibility
9:30 PM
Sat, Aug 27
84 °FHaze.3 mph79%29.77 "Hg3 mi
9:00 PM84 °FPassing clouds.7 mph74%29.74 "Hg3 mi
8:30 PM86 °FPassing clouds.6 mph70%29.74 "Hg3 mi
8:00 PM86 °FPassing clouds.6 mph70%29.71 "Hg3 mi
7:30 PM86 °FPassing clouds.7 mph70%29.71 "Hg3 mi
7:00 PM86 °FScattered clouds.7 mph75%29.71 "Hg3 mi
6:30 PM88 °FScattered clouds.7 mph66%29.71 "Hg3 mi
6:00 PM88 °FScattered clouds.8 mph66%29.68 "Hg3 mi
5:30 PM90 °FScattered clouds.9 mph63%29.68 "Hg3 mi
5:00 PM90 °FScattered clouds.10 mph63%29.68 "Hg3 mi
4:00 PM90 °FScattered clouds.10 mph63%29.71 "HgN/A
3:30 PM91 °FScattered clouds.12 mph59%29.71 "Hg3 mi
3:00 PM90 °FScattered clouds.8 mph63%29.71 "Hg3 mi
2:30 PM90 °FScattered clouds.8 mph67%29.71 "Hg3 mi
2:00 PM90 °FBroken clouds.8 mph67%29.74 "Hg3 mi
1:30 PM90 °FBroken clouds.9 mph67%29.77 "Hg3 mi
1:00 PM88 °FBroken clouds.9 mph75%29.77 "Hg3 mi
12:30 PM90 °FBroken clouds.9 mph75%29.80 "Hg3 mi
10:30 AM84 °FBroken clouds.8 mph84%29.83 "Hg3 mi
10:00 AM84 °FBroken clouds.8 mph84%29.83 "Hg3 mi
9:30 AM82 °FBroken clouds.8 mph84%29.83 "Hg2 mi
9:00 AM82 °FScattered clouds.9 mph84%29.80 "Hg2 mi
8:30 AM81 °FScattered clouds.10 mph89%29.80 "Hg2 mi
7:30 AM81 °FScattered clouds.7 mph89%29.80 "Hg2 mi
7:00 AM79 °FScattered clouds.7 mph94%29.80 "Hg2 mi
6:30 AM79 °FPassing clouds.6 mph94%29.77 "Hg2 mi
6:00 AM79 °FPassing clouds.6 mph94%29.77 "Hg2 mi
5:30 AM79 °FPassing clouds.6 mph94%29.77 "Hg2 mi
2:30 AM81 °FPassing clouds.3 mph94%29.74 "Hg2 mi
2:00 AM81 °FPassing clouds.5 mph94%29.74 "Hg2 mi
1:00 AM81 °FPassing clouds.5 mph94%29.77 "Hg2 mi
11:00 PM
Fri, Aug 26
82 °FPassing clouds.3 mph89%29.77 "Hg3 mi
10:30 PM84 °FPassing clouds.5 mph84%29.77 "Hg3 mi
10:00 PM82 °FPassing clouds.3 mph84%29.77 "Hg3 mi
Weather by CustomWeather, © 2016

See weather overviewHow to use our weather pages